Location: D�rnast
(49.6426°N, 11.9755°E)
Time: 01:42:28
(UTC+00:00)

N. Korean satellite - Pass Details

Date: 07 December 2021
Orbit: 446 x 492 km, 97.3° (Epoch: 16 January)

Event Time Altitude Azimuth Distance (km) Brightness Sun altitude
Rises 04:50:40 0° 9° (N) 2,468 10.1 -19.1°
Reaches altitude 10° 04:52:43 10° 6° (N) 1,588 9.1 -18.7°
Maximum altitude 04:56:04 60° 286° (WNW) 521 6.3 -18.2°
Drops below altitude 10° 04:59:23 10° 206° (SSW) 1,572 9.0 -17.7°
Sets 05:01:25 0° 203° (SSW) 2,441 10.0 -17.4°
